Погода в Крупышино

Россия / Орловская область     52°34′14″N   35°29′43″E
темп.,
°C
ветер,
м/с
пор.,
м/с
влажн.,
%
обл.,
%
осадки,
мм/ч
давл.,
гПа
погр.,
м
29 июня, ср
ср2900:00+18в4109496 0.0 1020219
03:00+16в348623 0.0 102063
06:00+16всв358378 0.0 1020111
09:00+20в4568100 0.0 1020380
12:00+23в445593 0.0 10201032
15:00+23в335333 0.0 10201401
18:00+22св3359100 0.0 10191046
21:00+17всв4670100 0.0 1019113
30 июня, чт
чт3000:00+15в3871100 0.0 1019162
03:00+14в347235 0.0 101965
06:00+13всв34810 0.0 101999
09:00+18св34620 0.0 1019548
12:00+21св34512 0.0 10191375
15:00+22св44480 0.0 10181656
18:00+22ссв245519 0.0 10181424
21:00+17ссв2270100 0.0 101813
1 июля, пт
пт100:00+15с228041 0.0 101911
03:00+13с34770 0.0 101962
06:00+13с37800 0.0 1019156
09:00+19с46630 0.0 1019489
12:00+23ссв695350 0.0 10191954
15:00+23св78515 0.0 10192019
18:00+20св586028 0.0 10201009
21:00+14всв36770 0.0 102286
2 июля, сб
сб200:00+12вюв22750 0.0 102311
03:00+11сз117383 0.0 102310
06:00+12сз23755 0.0 102464
09:00+18ссз23595 0.0 1023484
12:00+22ссз34510 0.0 10231339
15:00+23ссз35500 0.0 10211518
18:00+24сз355873 0.0 10211422
21:00+18сз227090 0.0 102011
3 июля, вс
вс300:00+17зсз227677 0.0 102011
03:00+16зсз34875 0.0 101948
06:00+17сз379063 0.0 1019166
09:00+23сз4673100 0.0 1018511
12:00+26сз5561100 0.0 10181084
15:00+27сз445191 0.0 10181879
18:00+27ссз356099 0.1 1017837
21:00+17ссв4793100 3.1 1019151